Zurück zum Katalog

STARLINK-38087

AktivKommunikationSSO
NORAD 69743·PAYLOAD·🇺🇸 United States

Gestartet Jul 2, 2026 von Vandenberg Space Force Base

Loading…

Nächste Überflüge (nächste 24 Stunden)

TLE

AktuellSource: CelesTrak SupGP

Epoche: Sep 14, 2026, 22:49 UTC

1 69743C 26150E   26257.95118056  .00087997  00000+0  27320-2 0  2572
2 69743  97.2847  97.0000 0001706  92.2853  81.3666 15.33390229    15

Verfolge STARLINK-38087 in Echtzeit mit AllMySat

Download on the App Store